Content
SEND FEEDBACK

Daily
Averages
Monthly
Summary
Kazakhstan

ATYRAU - TASKALA, KAZAKHSTAN


Home > Asia > Kazakhstan
Elevation: 69 feet     Latitude: 47 01N     Longitude: 051 51E

WEATHER
 
SELECT A DAY
Number of Records: 207,084;   Date Range: 3/15/97 - 8/10/14
 
SHARE

PRINT THIS DATA

[ ← Previous Day ]
WEATHER ALMANAC - JANUARY 31, 2013
[ Next Day → ]
[ °C ]   °F
Weather ElementAverageHighLow
Temperature25 °F26.6 °F (12:30 am)23 °F (10:30 am)
Dewpoint25 °F26.6 °F (12:30 am)23 °F (10:30 am)
Humidity100 %100 % (12:30 am)100 % (12:30 am)
Barometer29.78 in29.83 in (12:30 am)29.74 in (2:30 pm)
Wind Speed9.3 mph17.9 mph (1:30 am)
Weather ElementAverage
Visibility2.7 mi
Wind DirectionSSE (145.7 °)

Weather ElementTotal
Precipitation---
Heating Degree Days40.2 (Base 65)
Averaged from 47 records on January 31, 2013
WEATHER CONDITIONS BREAKOUT
WIND DIRECTION BREAKOUT
WEATHER BY HOUR - JANUARY 31, 2013
[ °C ]   °F
Local TimeTemperatureDewpointHumidityBarometerVisibilityWind DirectionWind SpeedGust SpeedPrecipitationEventsConditions
12:30 AM26.6 °F26.6 °F100 %29.83 in1.7 miENE (70°)13.4 mphSnowSnow
1:00 AM24.8 °F24.8 °F100 %29.83 in1.2 miENE (70°)15.7 mphSnowSnow
1:30 AM24.8 °F24.8 °F100 %29.83 in0.9 miENE (70°)17.9 mphSnowSnow
2:00 AM24.8 °F24.8 °F100 %29.83 in1.9 miENE (70°)15.7 mphSnowSnow
2:30 AM24.8 °F24.8 °F100 %29.83 in3.1 miENE (70°)15.7 mphSnowLight Snow
3:00 AM26.6 °F26.6 °F100 %29.83 in3.1 miENE (70°)13.4 mphSnowLight Snow
3:30 AM26.6 °F26.6 °F100 %29.80 in3.1 miENE (70°)15.7 mphSnowLight Snow
4:00 AM26.6 °F26.6 °F100 %29.83 in3.1 miEast (80°)13.4 mphSnowLight Snow
4:30 AM26.6 °F26.6 °F100 %29.80 in3.1 miENE (70°)13.4 mphSnowLight Snow
5:00 AM26.6 °F26.6 °F100 %29.80 in3.1 miEast (80°)13.4 mphSnowLight Snow
5:30 AM26.6 °F26.6 °F100 %29.80 in3.1 miEast (80°)13.4 mphSnowLight Snow
6:00 AM26.6 °F26.6 °F100 %29.80 in3.1 miEast (80°)13.4 mphSnowLight Snow
6:30 AM26.6 °F26.6 °F100 %29.80 in3.1 miEast (80°)11.2 mphSnowLight Snow
7:00 AM24.8 °F24.8 °F100 %29.80 in3.1 miENE (70°)11.2 mphSnowLight Snow
7:30 AM24.8 °F24.8 °F100 %29.80 in2.5 miENE (70°)11.2 mphSnowSnow
8:00 AM24.8 °F24.8 °F100 %29.80 inENE (70°)11.2 mphSnowLight Snow
8:30 AM24.8 °F24.8 °F100 %29.80 inENE (70°)11.2 mphSnowLight Snow
9:00 AM24.8 °F24.8 °F100 %29.80 inENE (70°)8.9 mphSnowLight Snow
9:30 AM24.8 °F24.8 °F100 %29.80 in1.7 miENE (70°)8.9 mphSnowLight Snow
10:00 AM24.8 °F24.8 °F100 %29.80 in2.5 miENE (70°)8.9 mphSnowLight Snow
10:30 AM23.0 °F23.0 °F100 %29.77 in1.5 miENE (70°)8.9 mphSnowLight Snow
11:00 AM24.8 °F24.8 °F100 %29.77 in1.4 miENE (70°)8.9 mphSnowSnow
11:30 AM24.8 °F24.8 °F100 %29.77 in1.5 miENE (70°)8.9 mphSnowSnow
12:00 PM24.8 °F24.8 °F100 %29.77 in1.1 miENE (70°)8.9 mphSnowSnow
12:30 PM24.8 °F24.8 °F100 %29.77 in1.6 miENE (70°)6.7 mphSnowSnow
1:00 PM24.8 °F24.8 °F100 %29.77 in2.5 miENE (60°)6.7 mphSnowLight Snow
1:30 PM24.8 °F24.8 °F100 %29.77 in3.7 miNE (50°)6.7 mphSnowLight Snow
2:00 PM24.8 °F24.8 °F100 %29.77 in1.6 miENE (60°)6.7 mphSnowLight Snow
2:30 PM26.6 °F26.6 °F100 %29.74 in3.1 miNE (40°)4.5 mphSnowLight Snow
3:00 PM26.6 °F26.6 °F100 %29.74 in3.1 miNE (40°)4.5 mphSnowLight Snow
3:30 PM26.6 °F26.6 °F100 %29.74 in3.1 miVariable2.2 mphSnowLight Snow
4:00 PM26.6 °F26.6 °F100 %29.74 in3.1 miNorth (360°)2.2 mphSnowLight Snow
4:30 PM26.6 °F26.6 °F100 %29.74 in3.1 miNorth (350°)2.2 mphSnowLight Snow
5:00 PM24.8 °F24.8 °F100 %29.74 in3.1 miNW (320°)4.5 mphSnowLight Snow
5:30 PM24.8 °F24.8 °F100 %29.74 in3.1 miNNW (340°)4.5 mphSnowLight Snow
6:00 PM24.8 °F24.8 °F100 %29.74 in3.1 miNNW (330°)4.5 mphMostly Cloudy
6:30 PM24.8 °F24.8 °F100 %29.74 in3.1 miNW (310°)4.5 mphMostly Cloudy
7:00 PM24.8 °F24.8 °F100 %29.74 in3.1 miWNW (300°)6.7 mphSnowLight Snow
7:30 PM24.8 °F24.8 °F100 %29.74 in3.1 miWNW (290°)6.7 mphSnowLight Snow
8:00 PM24.8 °F24.8 °F100 %29.74 in3.1 miWest (280°)8.9 mphSnowLight Snow
8:30 PM23.0 °F23.0 °F100 %29.74 in3.1 miWNW (290°)8.9 mphOvercast
9:00 PM23.0 °F23.0 °F100 %29.77 in3.1 miWest (280°)8.9 mphOvercast
9:30 PM23.0 °F23.0 °F100 %29.77 in3.1 miWest (280°)8.9 mphOvercast
10:00 PM23.0 °F23.0 °F100 %29.77 in3.1 miWest (270°)8.9 mphOvercast
10:30 PM23.0 °F23.0 °F100 %29.77 in3.1 miWest (270°)8.9 mphOvercast
11:00 PM23.0 °F23.0 °F100 %29.77 in3.1 miWest (260°)8.9 mphOvercast
11:30 PM23.0 °F23.0 °F100 %29.74 in3.1 miWest (270°)8.9 mphOvercast
Hourly data recorded from UATG, located miles away from Atyrau - Taskala, Kazakhstan







STORIES FROM OUR PARTNERS